When you browse on this site, cookies collect data to enhance your experience and personalize the content and advertising you see.
Visit our Privacy Policy to learn more. By continuing to use the site, you agree to this use of cookies and data.
  • Em Portugal
  • Lista de países
  • Para 7 dias
  • Temperatura da água
  • Mapas de satélite
  • Mapa do tempo
  • Widgets de tempo
  • user-avatar
    Iniciar Sessão

    Previsão horária em Voshod

    Hoje, 24 Junho, Segunda-feira

    Tempo Temperatura Precipitação Vento Pressão Humidade
    00:00 +21°C° 0 mm 1 m/s 753 mmHg 92%
    01:00 +20°C° 0 mm 1 m/s 753 mmHg 92%
    02:00 +19°C° 0 mm 1 m/s 753 mmHg 92%
    03:00 +19°C° 0 mm 1 m/s 753 mmHg 91%
    04:00 +19°C° 0 mm 1 m/s 753 mmHg 89%
    05:00 +19°C° 0 mm 2 m/s 753 mmHg 87%
    06:00 +20°C° 0 mm 2 m/s 753 mmHg 85%
    07:00 +21°C° 0 mm 2 m/s 753 mmHg 80%
    08:00 +23°C° 0 mm 2 m/s 754 mmHg 75%
    09:00 +25°C° 0 mm 2 m/s 754 mmHg 70%
    10:00 +25°C° 0.1 mm 3 m/s 754 mmHg 69%
    11:00 +25°C° 0.1 mm 3 m/s 754 mmHg 68%
    12:00 +25°C° 0.1 mm 4 m/s 753 mmHg 67%
    13:00 +25°C° 0 mm 4 m/s 754 mmHg 65%
    14:00 +25°C° 0 mm 3 m/s 754 mmHg 62%
    15:00 +24°C° 0 mm 3 m/s 754 mmHg 70%
    16:00 +24°C° 0 mm 3 m/s 753 mmHg 70%
    17:00 +22°C° 0 mm 3 m/s 753 mmHg 69%
    18:00 +22°C° 0 mm 3 m/s 753 mmHg 69%
    19:00 +20°C° 0 mm 2 m/s 753 mmHg 73%
    20:00 +19°C° 0 mm 2 m/s 754 mmHg 77%
    21:00 +18°C° 0 mm 2 m/s 754 mmHg 82%
    22:00 +17°C° 0 mm 2 m/s 754 mmHg 82%
    23:00 +16°C° 0 mm 2 m/s 754 mmHg 83%

    Amanhã, 25 Junho, Terça-feira

    Tempo Temperatura Precipitação Vento Pressão Humidade
    00:00 +15°C° 0 mm 2 m/s 754 mmHg 84%
    01:00 +15°C° 0 mm 2 m/s 754 mmHg 83%
    02:00 +14°C° 0 mm 2 m/s 754 mmHg 81%
    03:00 +13°C° 0 mm 3 m/s 754 mmHg 80%
    04:00 +14°C° 0 mm 3 m/s 754 mmHg 79%
    05:00 +14°C° 0 mm 3 m/s 754 mmHg 77%
    06:00 +16°C° 0 mm 3 m/s 755 mmHg 76%
    07:00 +17°C° 0 mm 3 m/s 755 mmHg 72%
    08:00 +19°C° 0 mm 4 m/s 755 mmHg 67%
    09:00 +20°C° 0 mm 4 m/s 756 mmHg 63%
    10:00 +21°C° 0 mm 4 m/s 756 mmHg 60%
    11:00 +21°C° 0 mm 5 m/s 756 mmHg 57%
    12:00 +22°C° 0 mm 5 m/s 756 mmHg 53%
    13:00 +22°C° 0 mm 5 m/s 756 mmHg 54%
    14:00 +22°C° 0 mm 5 m/s 756 mmHg 54%
    15:00 +22°C° 0 mm 4 m/s 756 mmHg 55%
    16:00 +21°C° 0.1 mm 4 m/s 756 mmHg 61%
    17:00 +20°C° 0.1 mm 4 m/s 756 mmHg 67%
    18:00 +20°C° 0.1 mm 4 m/s 756 mmHg 73%
    19:00 +18°C° 0 mm 3 m/s 756 mmHg 76%
    20:00 +16°C° 0 mm 3 m/s 756 mmHg 80%
    21:00 +13°C° 0 mm 3 m/s 756 mmHg 84%
    22:00 +13°C° 0 mm 3 m/s 756 mmHg 86%
    23:00 +12°C° 0 mm 3 m/s 756 mmHg 88%

    Depois de amanhã, 26 Junho, Quarta-feira

    Tempo Temperatura Precipitação Vento Pressão Humidade
    00:00 +11°C° 0 mm 3 m/s 756 mmHg 90%
    01:00 +11°C° 0 mm 3 m/s 756 mmHg 91%
    02:00 +10°C° 0 mm 3 m/s 757 mmHg 92%
    03:00 +10°C° 0 mm 3 m/s 757 mmHg 92%
    04:00 +11°C° 0 mm 3 m/s 757 mmHg 88%
    05:00 +12°C° 0 mm 3 m/s 756 mmHg 84%
    06:00 +12°C° 0 mm 3 m/s 756 mmHg 80%
    07:00 +14°C° 0 mm 3 m/s 756 mmHg 71%
    08:00 +15°C° 0 mm 4 m/s 757 mmHg 62%
    09:00 +18°C° 0 mm 4 m/s 757 mmHg 53%
    10:00 +19°C° 0 mm 4 m/s 756 mmHg 52%
    11:00 +19°C° 0 mm 4 m/s 756 mmHg 51%
    12:00 +20°C° 0 mm 4 m/s 756 mmHg 50%
    13:00 +20°C° 0 mm 4 m/s 756 mmHg 51%
    14:00 +20°C° 0 mm 4 m/s 756 mmHg 52%
    15:00 +20°C° 0 mm 4 m/s 755 mmHg 54%
    16:00 +20°C° 0.1 mm 3 m/s 755 mmHg 59%
    17:00 +19°C° 0.1 mm 3 m/s 754 mmHg 63%
    18:00 +19°C° 0.1 mm 2 m/s 754 mmHg 68%
    19:00 +17°C° 0 mm 2 m/s 754 mmHg 73%
    20:00 +15°C° 0 mm 1 m/s 753 mmHg 77%
    21:00 +14°C° 0 mm 1 m/s 753 mmHg 81%
    22:00 +14°C° 0.1 mm 1 m/s 753 mmHg 82%
    23:00 +14°C° 0.1 mm 1 m/s 752 mmHg 83%

    27 Junho, Quinta-feira

    Tempo Temperatura Precipitação Vento Pressão Humidade
    00:00 +14°C° 0.1 mm 1 m/s 752 mmHg 84%
    01:00 +13°C° 0.1 mm 1 m/s 752 mmHg 86%
    02:00 +13°C° 0.1 mm 1 m/s 752 mmHg 89%
    03:00 +13°C° 0.1 mm 1 m/s 751 mmHg 92%
    04:00 +13°C° 0.1 mm 1 m/s 751 mmHg 92%
    05:00 +14°C° 0.1 mm 1 m/s 751 mmHg 91%
    06:00 +14°C° 0.1 mm 1 m/s 750 mmHg 91%
    07:00 +15°C° 0 mm 1 m/s 750 mmHg 86%
    08:00 +16°C° 0 mm 1 m/s 750 mmHg 81%
    09:00 +18°C° 0 mm 1 m/s 749 mmHg 76%
    10:00 +19°C° 0.1 mm 1 m/s 749 mmHg 73%
    11:00 +19°C° 0.1 mm 2 m/s 749 mmHg 69%
    12:00 +20°C° 0.1 mm 2 m/s 748 mmHg 66%
    13:00 +20°C° 0.3 mm 3 m/s 748 mmHg 67%
    14:00 +20°C° 0.3 mm 3 m/s 747 mmHg 69%
    15:00 +20°C° 0.3 mm 3 m/s 747 mmHg 70%
    16:00 +19°C° 0.5 mm 3 m/s 746 mmHg 77%
    17:00 +18°C° 0.5 mm 3 m/s 746 mmHg 84%
    18:00 +17°C° 0.5 mm 3 m/s 746 mmHg 90%
    19:00 +17°C° 0.6 mm 3 m/s 745 mmHg 93%
    20:00 +15°C° 0.6 mm 4 m/s 745 mmHg 95%
    21:00 +14°C° 0.6 mm 4 m/s 744 mmHg 97%
    22:00 +14°C° 1.9 mm 4 m/s 744 mmHg 97%
    23:00 +14°C° 1.9 mm 5 m/s 743 mmHg 97%

    28 Junho, Sexta-feira

    Tempo Temperatura Precipitação Vento Pressão Humidade
    00:00 +14°C° 1.9 mm 6 m/s 742 mmHg 97%
    01:00 +14°C° 2.2 mm 6 m/s 742 mmHg 97%
    02:00 +15°C° 2.2 mm 5 m/s 741 mmHg 97%
    03:00 +15°C° 2.2 mm 5 m/s 741 mmHg 97%
    04:00 +15°C° 0.4 mm 5 m/s 740 mmHg 96%
    05:00 +15°C° 0.4 mm 5 m/s 740 mmHg 96%
    06:00 +15°C° 0.4 mm 5 m/s 739 mmHg 95%
    07:00 +16°C° 0.1 mm 6 m/s 739 mmHg 92%
    08:00 +17°C° 0.1 mm 7 m/s 739 mmHg 88%
    09:00 +17°C° 0.1 mm 7 m/s 738 mmHg 85%
    10:00 +17°C° 0.5 mm 7 m/s 738 mmHg 86%
    11:00 +16°C° 0.5 mm 7 m/s 738 mmHg 88%
    12:00 +16°C° 0.5 mm 7 m/s 738 mmHg 89%
    13:00 +16°C° 1.2 mm 6 m/s 738 mmHg 91%
    14:00 +16°C° 1.2 mm 6 m/s 738 mmHg 93%
    15:00 +15°C° 1.2 mm 5 m/s 738 mmHg 95%
    16:00 +16°C° 0.1 mm 5 m/s 738 mmHg 93%
    17:00 +18°C° 0.1 mm 4 m/s 738 mmHg 91%
    18:00 +19°C° 0.1 mm 3 m/s 738 mmHg 90%
    19:00 +18°C° 0.5 mm 3 m/s 738 mmHg 92%
    20:00 +17°C° 0.5 mm 3 m/s 738 mmHg 94%
    21:00 +16°C° 0.5 mm 3 m/s 738 mmHg 95%
    22:00 +14°C° 0.2 mm 3 m/s 738 mmHg 96%
    23:00 +14°C° 0.2 mm 2 m/s 738 mmHg 96%

    29 Junho, Sábado

    Tempo Temperatura Precipitação Vento Pressão Humidade
    00:00 +14°C° 0.2 mm 2 m/s 738 mmHg 96%
    01:00 +13°C° 0 mm 2 m/s 738 mmHg 96%
    02:00 +13°C° 0 mm 2 m/s 738 mmHg 95%
    03:00 +12°C° 0 mm 2 m/s 738 mmHg 95%
    04:00 +12°C° 0 mm 3 m/s 738 mmHg 94%
    05:00 +13°C° 0 mm 3 m/s 739 mmHg 93%
    06:00 +13°C° 0 mm 4 m/s 739 mmHg 93%
    07:00 +15°C° 0 mm 4 m/s 739 mmHg 86%
    08:00 +17°C° 0 mm 4 m/s 739 mmHg 80%
    09:00 +17°C° 0 mm 5 m/s 739 mmHg 74%
    10:00 +19°C° 0.1 mm 4 m/s 740 mmHg 72%
    11:00 +19°C° 0.1 mm 4 m/s 740 mmHg 70%
    12:00 +20°C° 0.1 mm 4 m/s 740 mmHg 68%
    13:00 +20°C° 0.4 mm 4 m/s 740 mmHg 68%
    14:00 +20°C° 0.4 mm 4 m/s 740 mmHg 69%
    15:00 +20°C° 0.4 mm 4 m/s 740 mmHg 69%
    16:00 +20°C° 0.1 mm 3 m/s 740 mmHg 72%
    17:00 +20°C° 0.1 mm 3 m/s 740 mmHg 74%
    18:00 +20°C° 0.1 mm 2 m/s 741 mmHg 76%
    19:00 +18°C° 0.1 mm 2 m/s 741 mmHg 81%
    20:00 +16°C° 0.1 mm 2 m/s 741 mmHg 86%
    21:00 +15°C° 0.1 mm 1 m/s 741 mmHg 91%
    22:00 +14°C° 0 mm 1 m/s 741 mmHg 92%
    23:00 +14°C° 0 mm 1 m/s 741 mmHg 92%
    Mostrar mais